Time,TemperatureF,DewpointF,PressureIn,WindDirection,WindDirectionDegrees,WindSpeedMPH,WindSpeedGustMPH,Humidity,HourlyPrecipIn,Conditions,Clouds,dailyrainin,SoftwareType,DateUTC
2013-10-27 00:20:00,56.1,52.9,29.96,WNW,298,0.0,0.0,89,0.00,,,0.00,Wunderground v.1.15,2013-10-27 07:20:00,
2013-10-27 00:25:00,56.0,52.8,29.96,WNW,298,0.0,0.0,89,0.00,,,0.00,Wunderground v.1.15,2013-10-27 07:25:00,
2013-10-27 00:30:00,56.1,52.9,29.96,WNW,298,0.0,0.0,89,0.00,,,0.00,Wunderground v.1.15,2013-10-27 07:30:00,
2013-10-27 00:35:00,56.0,52.8,29.95,WNW,298,0.0,0.0,89,0.00,,,0.00,Wunderground v.1.15,2013-10-27 07:35:00,
2013-10-27 00:40:00,56.0,52.8,29.96,WNW,298,0.0,0.0,89,0.00,,,0.00,Wunderground v.1.15,2013-10-27 07:40:00,
2013-10-27 00:45:00,55.9,52.7,29.96,WNW,298,0.0,0.0,89,0.00,,,0.00,Wunderground v.1.15,2013-10-27 07:45:00,
2013-10-27 00:50:00,56.0,52.8,29.95,WNW,298,0.0,0.0,89,0.00,,,0.00,Wunderground v.1.15,2013-10-27 07:50:00,
2013-10-27 00:55:00,56.0,52.8,29.96,WNW,298,0.0,0.0,89,0.00,,,0.00,Wunderground v.1.15,2013-10-27 07:55:00,
2013-10-27 01:00:00,55.9,52.7,29.95,WNW,298,0.0,0.0,89,0.00,,,0.00,Wunderground v.1.15,2013-10-27 08:00:00,
2013-10-27 01:05:00,55.7,52.5,29.95,WNW,298,0.0,0.0,89,0.00,,,0.00,Wunderground v.1.15,2013-10-27 08:05:00,
2013-10-27 01:10:00,55.7,52.5,29.95,WNW,298,0.0,0.0,89,0.00,,,0.00,Wunderground v.1.15,2013-10-27 08:10:00,
2013-10-27 01:20:00,55.4,52.2,29.95,WNW,298,0.0,0.0,89,0.00,,,0.00,Wunderground v.1.15,2013-10-27 08:20:00,
2013-10-27 01:25:00,55.4,52.2,29.95,WNW,298,0.0,0.0,89,0.00,,,0.00,Wunderground v.1.15,2013-10-27 08:25:00,
2013-10-27 01:30:00,55.5,52.3,29.95,WNW,298,0.0,0.0,89,0.00,,,0.00,Wunderground v.1.15,2013-10-27 08:30:00,
2013-10-27 01:35:00,55.6,52.4,29.94,WNW,298,0.0,0.0,89,0.00,,,0.00,Wunderground v.1.15,2013-10-27 08:35:00,
2013-10-27 01:40:00,55.9,52.7,29.95,WNW,298,0.0,0.0,89,0.00,,,0.00,Wunderground v.1.15,2013-10-27 08:40:00,
2013-10-27 01:45:00,56.6,53.4,29.94,WNW,298,0.0,0.0,89,0.00,,,0.00,Wunderground v.1.15,2013-10-27 08:45:00,
2013-10-27 01:50:00,57.2,54.0,29.94,WNW,298,0.0,0.0,89,0.00,,,0.00,Wunderground v.1.15,2013-10-27 08:50:00,
2013-10-27 01:55:00,57.7,54.5,29.94,WNW,298,0.0,0.0,89,0.00,,,0.00,Wunderground v.1.15,2013-10-27 08:55:00,
2013-10-27 02:00:00,57.9,54.7,29.94,WNW,298,0.0,0.0,89,0.00,,,0.00,Wunderground v.1.15,2013-10-27 09:00:00,
2013-10-27 02:05:00,58.0,54.8,29.94,WNW,298,0.0,0.0,89,0.00,,,0.00,Wunderground v.1.15,2013-10-27 09:05:00,
2013-10-27 02:10:00,58.1,54.9,29.94,WNW,298,0.0,0.0,89,0.00,,,0.00,Wunderground v.1.15,2013-10-27 09:10:00,
2013-10-27 02:20:00,58.4,55.2,29.94,WNW,298,0.0,0.0,89,0.00,,,0.00,Wunderground v.1.15,2013-10-27 09:20:00,
2013-10-27 02:25:00,58.6,55.4,29.94,WNW,298,0.0,0.0,89,0.00,,,0.00,Wunderground v.1.15,2013-10-27 09:25:00,
2013-10-27 02:30:00,58.8,55.6,29.94,WNW,298,0.0,0.0,89,0.00,,,0.00,Wunderground v.1.15,2013-10-27 09:30:00,
2013-10-27 02:35:00,59.0,55.8,29.94,WNW,298,0.0,0.0,89,0.00,,,0.00,Wunderground v.1.15,2013-10-27 09:35:00,
2013-10-27 02:40:00,59.1,55.9,29.94,WNW,298,0.0,0.0,89,0.00,,,0.00,Wunderground v.1.15,2013-10-27 09:40:00,
2013-10-27 02:50:00,59.3,56.1,29.94,WNW,298,0.0,0.0,89,0.00,,,0.00,Wunderground v.1.15,2013-10-27 09:50:00,
2013-10-27 02:55:00,59.5,56.3,29.94,WNW,298,0.0,0.0,89,0.00,,,0.00,Wunderground v.1.15,2013-10-27 09:55:00,
2013-10-27 03:00:00,59.5,56.3,29.94,WNW,298,0.0,0.0,89,0.00,,,0.00,Wunderground v.1.15,2013-10-27 10:00:00,
2013-10-27 03:05:00,59.6,56.4,29.93,WNW,298,0.0,0.0,89,0.00,,,0.00,Wunderground v.1.15,2013-10-27 10:05:00,
2013-10-27 03:10:00,59.8,56.6,29.93,WNW,298,0.0,0.0,89,0.00,,,0.00,Wunderground v.1.15,2013-10-27 10:10:00,
2013-10-27 03:16:00,60.0,56.7,29.93,WNW,298,0.0,0.0,89,0.00,,,0.00,Wunderground v.1.15,2013-10-27 10:16:00,
2013-10-27 03:20:00,60.1,56.8,29.93,WNW,298,1.0,1.0,89,0.00,,,0.00,Wunderground v.1.15,2013-10-27 10:20:00,
2013-10-27 03:25:00,60.2,56.9,29.93,WNW,298,1.0,1.0,89,0.00,,,0.00,Wunderground v.1.15,2013-10-27 10:25:00,
2013-10-27 03:30:00,60.3,57.0,29.92,WNW,298,0.0,0.0,89,0.00,,,0.00,Wunderground v.1.15,2013-10-27 10:30:00,
2013-10-27 03:36:00,60.4,57.1,29.92,WNW,298,0.0,0.0,89,0.00,,,0.00,Wunderground v.1.15,2013-10-27 10:36:00,
2013-10-27 03:45:00,60.5,57.2,29.92,WNW,298,0.0,0.0,89,0.00,,,0.00,Wunderground v.1.15,2013-10-27 10:45:00,
2013-10-27 03:50:00,60.6,57.3,29.92,WNW,298,0.0,0.0,89,0.00,,,0.00,Wunderground v.1.15,2013-10-27 10:50:00,
2013-10-27 03:55:00,60.7,57.4,29.92,WNW,298,0.0,0.0,89,0.00,,,0.00,Wunderground v.1.15,2013-10-27 10:55:00,
2013-10-27 04:00:00,60.7,57.4,29.92,WNW,298,0.0,0.0,89,0.00,,,0.00,Wunderground v.1.15,2013-10-27 11:00:00,
2013-10-27 04:05:00,60.8,57.5,29.92,WNW,298,0.0,0.0,89,0.00,,,0.00,Wunderground v.1.15,2013-10-27 11:05:00,
2013-10-27 04:10:00,60.9,57.6,29.92,WNW,298,0.0,0.0,89,0.00,,,0.00,Wunderground v.1.15,2013-10-27 11:10:00,
2013-10-27 04:16:00,60.9,57.6,29.92,WNW,298,1.0,1.0,89,0.00,,,0.00,Wunderground v.1.15,2013-10-27 11:16:00,
2013-10-27 04:21:00,61.0,57.7,29.92,WNW,298,1.0,1.0,89,0.00,,,0.00,Wunderground v.1.15,2013-10-27 11:21:00,
2013-10-27 04:25:00,61.0,57.7,29.91,WNW,298,1.0,1.0,89,0.00,,,0.00,Wunderground v.1.15,2013-10-27 11:25:00,
2013-10-27 04:30:00,61.0,57.7,29.91,WNW,298,1.0,1.0,89,0.00,,,0.00,Wunderground v.1.15,2013-10-27 11:30:00,
2013-10-27 04:35:00,61.1,57.8,29.91,ENE,77,1.0,1.0,89,0.00,,,0.00,Wunderground v.1.15,2013-10-27 11:35:00,
2013-10-27 04:40:00,61.1,57.8,29.91,ENE,77,1.0,1.0,89,0.00,,,0.00,Wunderground v.1.15,2013-10-27 11:40:00,
2013-10-27 04:45:00,61.0,57.7,29.91,ENE,77,1.0,1.0,89,0.00,,,0.00,Wunderground v.1.15,2013-10-27 11:45:00,
2013-10-27 04:55:00,61.0,57.7,29.91,SSE,161,1.0,1.0,89,0.00,,,0.00,Wunderground v.1.15,2013-10-27 11:55:00,
2013-10-27 05:00:00,61.0,57.7,29.91,SSE,161,1.0,1.0,89,0.00,,,0.00,Wunderground v.1.15,2013-10-27 12:00:00,
2013-10-27 05:05:00,61.0,57.7,29.91,SSE,161,0.0,1.0,89,0.00,,,0.00,Wunderground v.1.15,2013-10-27 12:05:00,
2013-10-27 05:10:00,61.0,57.7,29.91,SSE,161,0.0,0.0,89,0.00,,,0.00,Wunderground v.1.15,2013-10-27 12:10:00,
2013-10-27 05:20:00,61.0,57.7,29.91,SSE,161,0.0,0.0,89,0.00,,,0.00,Wunderground v.1.15,2013-10-27 12:20:00,
2013-10-27 05:25:00,61.0,57.7,29.91,SSE,161,0.0,0.0,89,0.00,,,0.00,Wunderground v.1.15,2013-10-27 12:25:00,
2013-10-27 05:30:00,61.0,57.7,29.91,SSE,162,0.0,2.0,89,0.00,,,0.00,Wunderground v.1.15,2013-10-27 12:30:00,
2013-10-27 05:35:00,60.9,57.6,29.91,SSE,155,1.0,3.0,89,0.00,,,0.00,Wunderground v.1.15,2013-10-27 12:35:00,
2013-10-27 05:40:00,60.8,57.5,29.91,SSE,155,1.0,1.0,89,0.00,,,0.00,Wunderground v.1.15,2013-10-27 12:40:00,
2013-10-27 05:45:00,60.7,57.4,29.91,SSE,155,0.0,1.0,89,0.00,,,0.00,Wunderground v.1.15,2013-10-27 12:45:00,
2013-10-27 05:50:00,60.7,57.4,29.91,SSE,155,0.0,0.0,89,0.00,,,0.00,Wunderground v.1.15,2013-10-27 12:50:00,
2013-10-27 05:55:00,60.7,57.4,29.91,SSE,155,1.0,1.0,89,0.00,,,0.00,Wunderground v.1.15,2013-10-27 12:55:00,
2013-10-27 06:00:00,60.7,57.4,29.91,SSE,155,0.0,3.0,89,0.00,,,0.00,Wunderground v.1.15,2013-10-27 13:00:00,
2013-10-27 06:05:00,60.6,57.3,29.91,SSE,155,0.0,3.0,89,0.00,,,0.00,Wunderground v.1.15,2013-10-27 13:05:00,
2013-10-27 06:10:00,60.6,57.3,29.91,SSE,155,0.0,0.0,89,0.00,,,0.00,Wunderground v.1.15,2013-10-27 13:10:00,
2013-10-27 06:16:00,60.6,57.3,29.91,SSE,155,0.0,0.0,89,0.00,,,0.00,Wunderground v.1.15,2013-10-27 13:16:00,
2013-10-27 06:20:00,60.6,57.3,29.91,SSE,155,0.0,2.0,89,0.00,,,0.00,Wunderground v.1.15,2013-10-27 13:20:00,
2013-10-27 06:25:00,60.6,57.3,29.91,SSE,155,0.0,2.0,89,0.00,,,0.00,Wunderground v.1.15,2013-10-27 13:25:00,
2013-10-27 06:30:00,60.6,57.3,29.91,SSE,155,0.0,0.0,89,0.00,,,0.00,Wunderground v.1.15,2013-10-27 13:30:00,
2013-10-27 06:35:00,60.6,57.3,29.91,SSE,155,0.0,0.0,89,0.00,,,0.00,Wunderground v.1.15,2013-10-27 13:35:00,
2013-10-27 06:40:00,60.5,57.2,29.91,SSE,155,1.0,1.0,89,0.00,,,0.00,Wunderground v.1.15,2013-10-27 13:40:00,
2013-10-27 06:45:00,60.5,57.2,29.91,SSE,155,0.0,1.0,89,0.00,,,0.00,Wunderground v.1.15,2013-10-27 13:45:00,
2013-10-27 06:50:00,60.5,57.2,29.91,SSE,155,0.0,0.0,89,0.00,,,0.00,Wunderground v.1.15,2013-10-27 13:50:00,
2013-10-27 06:55:00,60.5,57.2,29.91,SSE,155,0.0,0.0,89,0.00,,,0.00,Wunderground v.1.15,2013-10-27 13:55:00,
2013-10-27 07:00:00,60.5,57.2,29.91,SSE,155,0.0,0.0,89,0.00,,,0.00,Wunderground v.1.15,2013-10-27 14:00:00,
2013-10-27 07:05:00,60.6,57.3,29.91,SSE,155,0.0,0.0,89,0.00,,,0.00,Wunderground v.1.15,2013-10-27 14:05:00,
2013-10-27 07:10:00,60.6,57.3,29.91,SSE,155,1.0,1.0,89,0.00,,,0.00,Wunderground v.1.15,2013-10-27 14:10:00,
2013-10-27 07:20:00,60.7,57.4,29.92,SSE,155,0.0,0.0,89,0.00,,,0.00,Wunderground v.1.15,2013-10-27 14:20:00,
2013-10-27 07:31:00,60.8,57.5,29.92,SSE,155,0.0,0.0,89,0.00,,,0.00,Wunderground v.1.15,2013-10-27 14:31:00,
2013-10-27 07:35:00,60.8,57.5,29.92,SSE,155,0.0,0.0,89,0.00,,,0.00,Wunderground v.1.15,2013-10-27 14:35:00,
2013-10-27 07:40:00,60.8,57.5,29.92,SSE,155,0.0,0.0,89,0.00,,,0.00,Wunderground v.1.15,2013-10-27 14:40:00,
2013-10-27 07:45:00,60.9,57.6,29.92,SSE,155,0.0,2.0,89,0.00,,,0.00,Wunderground v.1.15,2013-10-27 14:45:00,
2013-10-27 07:50:00,61.0,57.7,29.92,SSE,155,0.0,0.0,89,0.00,,,0.00,Wunderground v.1.15,2013-10-27 14:50:00,
2013-10-27 07:55:00,61.1,57.8,29.92,South,175,1.0,2.0,89,0.00,,,0.00,Wunderground v.1.15,2013-10-27 14:55:00,
2013-10-27 08:00:00,61.1,57.8,29.92,SSE,159,1.0,1.0,89,0.00,,,0.00,Wunderground v.1.15,2013-10-27 15:00:00,
2013-10-27 08:05:00,61.2,57.9,29.93,SSE,163,1.0,1.0,89,0.00,,,0.00,Wunderground v.1.15,2013-10-27 15:05:00,
2013-10-27 08:10:00,61.3,58.0,29.93,SSE,163,1.0,1.0,89,0.00,,,0.00,Wunderground v.1.15,2013-10-27 15:10:00,
2013-10-27 08:16:00,61.3,58.0,29.93,SE,138,1.0,2.0,89,0.00,,,0.00,Wunderground v.1.15,2013-10-27 15:16:00,
2013-10-27 08:20:00,61.4,58.1,29.93,SE,138,1.0,1.0,89,0.00,,,0.00,Wunderground v.1.15,2013-10-27 15:20:00,
2013-10-27 08:25:00,61.5,58.2,29.93,SSE,155,1.0,1.0,89,0.00,,,0.00,Wunderground v.1.15,2013-10-27 15:25:00,
2013-10-27 08:30:00,61.6,58.3,29.93,SSE,155,1.0,1.0,89,0.00,,,0.00,Wunderground v.1.15,2013-10-27 15:30:00,
2013-10-27 08:35:00,61.7,58.4,29.93,SE,131,0.0,1.0,89,0.00,,,0.00,Wunderground v.1.15,2013-10-27 15:35:00,
2013-10-27 08:40:00,61.8,58.5,29.93,South,173,1.0,1.0,89,0.00,,,0.00,Wunderground v.1.15,2013-10-27 15:40:00,
2013-10-27 08:45:00,61.9,58.6,29.94,SE,128,1.0,1.0,89,0.00,,,0.00,Wunderground v.1.15,2013-10-27 15:45:00,
2013-10-27 08:50:00,62.0,58.7,29.94,ESE,123,1.0,1.0,89,0.00,,,0.00,Wunderground v.1.15,2013-10-27 15:50:00,
2013-10-27 09:25:00,62.3,58.7,29.95,SSW,194,2.0,2.0,88,0.00,,,0.00,Wunderground v.1.15,2013-10-27 16:25:00,
2013-10-27 09:30:00,62.3,58.7,29.95,SE,128,2.0,2.0,88,0.00,,,0.00,Wunderground v.1.15,2013-10-27 16:30:00,
2013-10-27 09:35:00,62.3,58.7,29.95,SE,128,1.0,1.0,88,0.00,,,0.00,Wunderground v.1.15,2013-10-27 16:35:00,
2013-10-27 09:40:00,62.5,58.9,29.94,SE,128,0.0,2.0,88,0.00,,,0.00,Wunderground v.1.15,2013-10-27 16:40:00,
2013-10-27 10:16:00,63.3,59.4,29.94,SSE,159,2.0,2.0,87,0.00,,,0.00,Wunderground v.1.15,2013-10-27 17:16:00,
2013-10-27 10:20:00,63.4,59.5,29.94,SSE,161,2.0,2.0,87,0.00,,,0.00,Wunderground v.1.15,2013-10-27 17:20:00,
2013-10-27 10:25:00,63.6,59.7,29.93,SE,145,1.0,2.0,87,0.00,,,0.00,Wunderground v.1.15,2013-10-27 17:25:00,
2013-10-27 10:30:00,63.8,59.5,29.93,SE,138,2.0,2.0,86,0.00,,,0.00,Wunderground v.1.15,2013-10-27 17:30:00,
2013-10-27 10:35:00,64.0,59.7,29.93,South,169,3.0,4.0,86,0.00,,,0.00,Wunderground v.1.15,2013-10-27 17:35:00,
2013-10-27 10:40:00,64.3,60.0,29.93,SSW,193,4.0,4.0,86,0.00,,,0.00,Wunderground v.1.15,2013-10-27 17:40:00,
2013-10-27 10:45:00,64.5,59.9,29.93,SE,131,3.0,4.0,85,0.00,,,0.00,Wunderground v.1.15,2013-10-27 17:45:00,
2013-10-27 10:50:00,64.8,60.2,29.93,South,182,2.0,3.0,85,0.00,,,0.00,Wunderground v.1.15,2013-10-27 17:50:00,
2013-10-27 10:55:00,65.1,60.5,29.93,SW,215,2.0,4.0,85,0.00,,,0.00,Wunderground v.1.15,2013-10-27 17:55:00,
2013-10-27 11:00:00,65.0,60.0,29.93,SSW,207,3.0,5.0,84,0.00,,,0.00,Wunderground v.1.15,2013-10-27 18:00:00,
2013-10-27 11:06:00,64.9,59.9,29.93,SSE,168,4.0,5.0,84,0.00,,,0.00,Wunderground v.1.15,2013-10-27 18:06:00,
2013-10-27 11:11:00,64.9,59.9,29.93,ESE,117,3.0,3.0,84,0.00,,,0.00,Wunderground v.1.15,2013-10-27 18:11:00,
2013-10-27 11:20:00,65.2,60.2,29.93,SSW,200,3.0,3.0,84,0.00,,,0.00,Wunderground v.1.15,2013-10-27 18:20:00,
2013-10-27 11:25:00,65.2,60.2,29.93,South,191,3.0,3.0,84,0.00,,,0.00,Wunderground v.1.15,2013-10-27 18:25:00,
2013-10-27 11:30:00,65.1,60.1,29.93,SE,138,3.0,3.0,84,0.00,,,0.00,Wunderground v.1.15,2013-10-27 18:30:00,
2013-10-27 11:36:00,65.2,60.2,29.93,South,178,2.0,3.0,84,0.00,,,0.00,Wunderground v.1.15,2013-10-27 18:36:00,
2013-10-27 11:40:00,65.3,60.0,29.93,South,173,3.0,3.0,83,0.00,,,0.00,Wunderground v.1.15,2013-10-27 18:40:00,
2013-10-27 11:50:00,65.4,60.1,29.92,SSW,205,3.0,5.0,83,0.00,,,0.00,Wunderground v.1.15,2013-10-27 18:50:00,
2013-10-27 12:00:00,65.6,60.0,29.92,WSW,240,4.0,6.0,82,0.00,,,0.00,Wunderground v.1.15,2013-10-27 19:00:00,
2013-10-27 12:05:00,65.3,60.0,29.92,SW,227,5.0,6.0,83,0.00,,,0.00,Wunderground v.1.15,2013-10-27 19:05:00,
2013-10-27 12:10:00,65.0,59.7,29.92,WSW,256,5.0,5.0,83,0.00,,,0.00,Wunderground v.1.15,2013-10-27 19:10:00,
2013-10-27 12:20:00,64.4,59.1,29.91,SW,233,5.0,5.0,83,0.00,,,0.00,Wunderground v.1.15,2013-10-27 19:20:00,
2013-10-27 12:25:00,64.2,58.9,29.91,SW,222,4.0,5.0,83,0.00,,,0.00,Wunderground v.1.15,2013-10-27 19:25:00,
2013-10-27 12:35:00,64.3,59.4,29.90,SW,226,3.0,5.0,84,0.00,,,0.00,Wunderground v.1.15,2013-10-27 19:35:00,
2013-10-27 12:45:00,64.8,59.5,29.89,SW,227,3.0,4.0,83,0.00,,,0.00,Wunderground v.1.15,2013-10-27 19:45:00,
2013-10-27 12:50:00,65.1,59.8,29.89,SW,234,3.0,4.0,83,0.00,,,0.00,Wunderground v.1.15,2013-10-27 19:50:00,
2013-10-27 12:55:00,65.2,59.6,29.89,SW,224,4.0,4.0,82,0.00,,,0.00,Wunderground v.1.15,2013-10-27 19:55:00,
2013-10-27 13:00:00,65.2,59.9,29.89,South,182,4.0,4.0,83,0.00,,,0.00,Wunderground v.1.15,2013-10-27 20:00:00,
2013-10-27 13:10:00,65.5,59.9,29.88,WSW,242,3.0,7.0,82,0.00,,,0.00,Wunderground v.1.15,2013-10-27 20:10:00,
2013-10-27 13:21:00,65.9,60.2,29.88,SSW,192,3.0,4.0,82,0.00,,,0.00,Wunderground v.1.15,2013-10-27 20:21:00,
2013-10-27 13:30:00,66.3,60.3,29.87,SSW,204,4.0,4.0,81,0.00,,,0.00,Wunderground v.1.15,2013-10-27 20:30:00,
2013-10-27 13:35:00,66.2,60.2,29.87,SSW,211,5.0,5.0,81,0.00,,,0.00,Wunderground v.1.15,2013-10-27 20:35:00,
2013-10-27 13:40:00,66.6,60.6,29.86,SSW,200,5.0,5.0,81,0.00,,,0.00,Wunderground v.1.15,2013-10-27 20:40:00,
2013-10-27 13:45:00,66.9,60.9,29.86,South,181,4.0,5.0,81,0.00,,,0.00,Wunderground v.1.15,2013-10-27 20:45:00,
2013-10-27 13:51:00,67.5,60.8,29.85,SSW,213,3.0,3.0,79,0.00,,,0.00,Wunderground v.1.15,2013-10-27 20:51:00,
2013-10-27 13:55:00,67.8,60.7,29.85,SSW,206,3.0,6.0,78,0.00,,,0.00,Wunderground v.1.15,2013-10-27 20:55:00,
2013-10-27 14:00:00,68.0,60.9,29.85,South,184,4.0,9.0,78,0.00,,,0.00,Wunderground v.1.15,2013-10-27 21:00:00,
2013-10-27 14:05:00,68.0,61.2,29.85,WSW,252,4.0,9.0,79,0.00,,,0.00,Wunderground v.1.15,2013-10-27 21:05:00,
2013-10-27 14:10:00,68.0,60.9,29.85,SSW,209,5.0,6.0,78,0.00,,,0.00,Wunderground v.1.15,2013-10-27 21:10:00,
2013-10-27 14:20:00,67.8,61.0,29.84,SW,217,6.0,9.0,79,0.00,,,0.00,Wunderground v.1.15,2013-10-27 21:20:00,
2013-10-27 14:25:00,67.9,61.1,29.84,SW,225,6.0,11.0,79,0.00,,,0.00,Wunderground v.1.15,2013-10-27 21:25:00,
2013-10-27 15:10:00,68.1,61.3,29.84,SSE,165,5.0,5.0,79,0.00,,,0.00,Wunderground v.1.15,2013-10-27 22:10:00,
2013-10-27 15:20:00,68.3,61.5,29.84,South,183,6.0,6.0,79,0.00,,,0.00,Wunderground v.1.15,2013-10-27 22:20:00,
2013-10-27 15:25:00,68.2,61.1,29.84,WSW,241,6.0,6.0,78,0.00,,,0.00,Wunderground v.1.15,2013-10-27 22:25:00,
2013-10-27 23:00:00,62.0,56.4,29.83,SSW,202,1.0,1.0,82,0.00,,,0.00,Wunderground v.1.15,2013-10-28 06:00:00,
2013-10-27 23:05:00,61.9,56.3,29.83,SSW,202,0.0,1.0,82,0.00,,,0.00,Wunderground v.1.15,2013-10-28 06:05:00,
2013-10-27 23:10:00,61.8,56.2,29.83,SSW,202,0.0,2.0,82,0.00,,,0.00,Wunderground v.1.15,2013-10-28 06:10:00,